LES 2 AKM, 2529

Orbit data source: Space-Track

LES 2 AKM, 2529 is space debris in HEO originally from a launch on Thu, 06 May 1965 UTC launched from the Air Force Eastern Test Range (AFETR). Debris objects in space refer to the collection of defunct objects orbiting the Earth. Examples of debris include non-operational satellites, rocket bodies, and fragments generated from explosions, collisions, or faulty payload assembly.

Loading next visibility...
Identifier
2529, 1965-034D
Orbit
HEO
Country
Flag of USUS
Related business
Manufacturer
Thiokol/TE
Mission
Spacecraft
Bus & Motor
STAR 13, STAR 13
Mass
~127 kg wet, ~97 kg dry
Launch date (UTC)
1965-05-06 (61 years ago)
Launch vehicle
Unknown
Launch site
Air Force Eastern Test Range (AFETR)
Object type
Payload
Rocket body
Debris
Shape & HBR
Unknown
Radar Cross Section
Medium (>0.1 m² and <1 m²)

Expand to show TLE details & history
Last TLE update: 1 week ago

TLE from 1 week ago
0 LES 2 AKM
1 02529U 65034D   25300.99912359 -.00000011  00000-0  00000-0 0  9996
2 02529  32.0926 156.7850 3958933 207.6854 124.0849  4.64840146  9718
Epoch: 2025-10-27T23:58Z
TLE epoch observation values (Epoch: 2025-10-27T23:58:44.278Z)
Latitude
-0.00001°
Longitude
120.51563°
Altitude
13,312.971 km
Speed
3.769 km/s
True Right ascension
10h 27m 10s
True Declination
0° 00' 00"
Sunlit
Object was in daylight at epoch
Visualization orbit readout
Latitude
Unknown
Longitude
Unknown
Altitude
Unknown
Speed
Unknown
Apparent Right ascension
Unknown
Apparent Declination
Unknown
Sunlit
N/A
Visualization observer readout
Local Sidereal Time
04:02:54
Azimuth
Unknown
Elevation
Unknown
Doppler factor
Unknown
Orbital elements
Apogee altitude
14,794.771 km
Perigee altitude
2,784.953 km
Semi-major axis
15,167.999 km
Eccentricity
0.39589
Inclination
32.0926°
RAAN
156.785°
Arg. of periapsis
207.6854°
True anomaly
152.34506°
Mean anomaly
124.0849°
Eccentric anomaly
138.97405°
Mean motion
1.16185 °/min
Orbital period
309.85 mins
BSTAR
0
Loading maneuver chart data...
Computing Atmospheric mass density...
Loading historical data...
Loading historical data...
Loading historical data...
Loading historical data...
Loading historical data...
Loading historical data...
Loading historical data...
Other satellites on launch #34 in the year 1965 (1965-05-06 UTC)

Documentation

Showing up to 5 results
|